^^
Station Historical Data
 
Daily Summary for January 18, 2019 Units:  Metric    English   Both
« Previous Day
Next Day »
Daily Weekly Monthly Yearly Custom
  Current: High: Low: Average:
Temperature: -16.5 °C -17.8 °C -18.3 °C -17.4 °C
Dew Point: -17.7 °C -17.8 °C -18.9 °C -18.1 °C
Humidity: 86% Humidity% 86% 90%
Wind Speed: 11.9km/h 0km/h 0km/h 2.7km/h
Wind Gust: 5.1km/h 0km/h - -
WindSouth - - SW
Pressure: 34472.9 hPa 0 hPa 34286.6 hPa -
Precipitation: 0 mm      
Historical Graphs
 
 
Tabular Data for January 18, 2019
Time Temperature Dew Point Pressure Wind Wind Speed Wind Gust Humidity Rainfall Rate (Hourly) solar Conditions
-17.8 °C -17.8 °C 0 hPa Calm     Humidity% 0 mm SolarRadiationWatts/m^2 W/m2 Conditions
00:04 -17 °C -17.7 °C 34286.6 hPa WSW 6 km/h 1.3 km/h 92% 0 mm 0.00 W/m2 RA
00:09 -17 °C -17.7 °C 34290 hPa Calm     92% 0 mm 0.00 W/m2 RA
00:14 -17 °C -17.7 °C 34293.4 hPa Calm     92% 0 mm 0.00 W/m2 CLR
00:19 -17 °C -17.7 °C 34293.4 hPa Calm     92% 0 mm 0.00 W/m2 CLR
00:24 -17 °C -17.7 °C 34296.8 hPa Calm     92% 0 mm 0.00 W/m2 CLR
00:29 -17 °C -17.7 °C 34300.2 hPa Calm     92% 0 mm 0.00 W/m2 CLR
00:34 -17 °C -17.6 °C 34303.6 hPa Calm     93% 0 mm 0.00 W/m2 CLR
00:39 -17 °C -17.6 °C 34303.6 hPa WSW 9 km/h 2.3 km/h 92% 0 mm 0.00 W/m2 FEW
00:44 -16.9 °C -17.6 °C 34307 hPa WNW 9 km/h 4.7 km/h 92% 0 mm 0.00 W/m2 FEW
00:49 -16.9 °C -17.5 °C 34310.3 hPa WNW 5.5 km/h   93% 0 mm 0.00 W/m2 FEW
00:54 -16.9 °C -17.4 °C 34310.3 hPa WNW 9 km/h 3.1 km/h 93% 0 mm 0.00 W/m2 FEW
00:59 -16.9 °C -17.6 °C 34313.7 hPa WNW 6 km/h 1 km/h 92% 0 mm 0.00 W/m2 FEW
01:04 -16.9 °C -17.6 °C 34317.1 hPa Calm     92% 0 mm 0.00 W/m2 FEW
01:09 -16.9 °C -17.6 °C 34320.5 hPa Calm     92% 0 mm 0.00 W/m2 FEW
01:13 -16.9 °C -17.6 °C 34323.9 hPa Calm     92% 0 mm 0.00 W/m2 FEW
01:19 -16.9 °C -17.6 °C 34327.3 hPa WNW 9 km/h 2.3 km/h 92% 0 mm 0.00 W/m2 FEW
01:23 -16.9 °C -17.6 °C 34330.7 hPa WNW 8 km/h 3.4 km/h 92% 0 mm 0.00 W/m2 FEW
01:29 -16.9 °C -17.7 °C 34334 hPa Calm     91% 0 mm 0.00 W/m2 FEW
01:34 -16.9 °C -17.7 °C 34337.4 hPa WNW 8 km/h 0.8 km/h 91% 0 mm 0.00 W/m2 FEW
01:38 -16.9 °C -17.7 °C 34337.4 hPa WNW 9 km/h   91% 0 mm 0.00 W/m2 FEW
01:44 -16.9 °C -17.7 °C 34340.8 hPa WNW 9 km/h 1.6 km/h 91% 0 mm 0.00 W/m2 FEW
01:48 -16.9 °C -17.7 °C 34340.8 hPa Calm     90% 0 mm 0.00 W/m2 FEW
01:53 -17 °C -17.8 °C 34344.2 hPa Calm     90% 0 mm 0.00 W/m2 FEW
01:59 -17 °C -17.8 °C 34347.6 hPa Calm     90% 0 mm 0.00 W/m2 FEW
02:04 -17 °C -17.9 °C 34351 hPa Calm     89% 0 mm 0.00 W/m2 FEW
02:09 -17.1 °C -17.9 °C 34354.4 hPa Calm     89% 0 mm 0.00 W/m2 FEW
02:14 -17.1 °C -17.9 °C 34357.7 hPa Calm     89% 0 mm 0.00 W/m2 FEW
02:19 -17.1 °C -17.9 °C 34361.1 hPa Calm     89% 0 mm 0.00 W/m2 FEW
02:23 -17.1 °C -18 °C 34364.5 hPa Calm     89% 0 mm 0.00 W/m2 FEW
02:29 -17.1 °C -18 °C 34364.5 hPa Calm     89% 0 mm 0.00 W/m2 FEW
02:34 -17.1 °C -18 °C 34364.5 hPa Calm     89% 0 mm 0.00 W/m2 FEW
02:39 -17.2 °C -18.1 °C 34364.5 hPa Calm     89% 0 mm 0.00 W/m2 FEW
02:44 -17.2 °C -18.1 °C 34367.9 hPa Calm     89% 0 mm 0.00 W/m2 FEW
02:49 -17.3 °C -18.2 °C 34371.3 hPa Calm     89% 0 mm 0.00 W/m2 FEW
02:54 -17.3 °C -18.2 °C 34374.7 hPa Calm     89% 0 mm 0.00 W/m2 FEW
02:58 -17.4 °C -18.3 °C 34374.7 hPa Calm     89% 0 mm 0.00 W/m2 FEW
03:04 -17.4 °C -18.4 °C 34374.7 hPa Calm     89% 0 mm 0.00 W/m2 FEW
03:09 -17.6 °C -18.4 °C 34381.4 hPa Calm     89% 0 mm 0.00 W/m2 FEW
03:14 -17.6 °C -18.4 °C 34381.4 hPa Calm     90% 0 mm 0.00 W/m2 FEW
03:18 -17.6 °C -18.3 °C 34384.8 hPa Calm     90% 0 mm 0.00 W/m2 FEW
03:24 -17.6 °C -18.3 °C 34381.4 hPa Calm     90% 0 mm 0.00 W/m2 FEW
03:29 -17.5 °C -18.3 °C 34384.8 hPa Calm     90% 0 mm 0.00 W/m2 FEW
03:34 -17.6 °C -18.4 °C 34384.8 hPa Calm     90% 0 mm 0.00 W/m2 FEW
03:39 -17.6 °C -18.4 °C 34388.2 hPa Calm     90% 0 mm 0.00 W/m2 FEW
03:44 -17.7 °C -18.5 °C 34391.6 hPa Calm     90% 0 mm 0.00 W/m2 FEW
03:48 -17.7 °C -18.6 °C 34398.4 hPa Calm     90% 0 mm 0.00 W/m2 FEW
03:54 -17.8 °C -18.7 °C 34395 hPa Calm     90% 0 mm 0.00 W/m2 FEW
03:58 -17.9 °C -18.7 °C 34395 hPa Calm     90% 0 mm 0.00 W/m2 FEW
04:03 -17.9 °C -18.7 °C 34395 hPa Calm     90% 0 mm 0.00 W/m2 FEW
04:09 -18 °C -18.7 °C 34391.6 hPa Calm     91% 0 mm 0.00 W/m2 FEW
04:13 -18.1 °C -18.8 °C 34395 hPa Calm     90% 0 mm 0.00 W/m2 FEW
04:19 -18.1 °C -18.8 °C 34398.4 hPa Calm     91% 0 mm 0.00 W/m2 FEW
04:24 -18.1 °C -18.8 °C 34395 hPa Calm     91% 0 mm 0.00 W/m2 FEW
04:29 -18.2 °C -18.8 °C 34398.4 hPa Calm     91% 0 mm 0.00 W/m2 FEW
04:34 -18.2 °C -18.9 °C 34398.4 hPa Calm     91% 0 mm 0.00 W/m2 FEW
04:38 -18.2 °C -18.9 °C 34398.4 hPa Calm     91% 0 mm 0.00 W/m2 FEW
04:44 -18.2 °C -18.9 °C 34405.1 hPa Calm     91% 0 mm 0.00 W/m2 FEW
04:48 -18.3 °C -18.9 °C 34408.5 hPa Calm     92% 0 mm 0.00 W/m2 FEW
04:54 -18.2 °C -18.8 °C 34408.5 hPa Calm     92% 0 mm 0.00 W/m2 FEW
04:59 -18.2 °C -18.8 °C 34408.5 hPa Calm     92% 0 mm 0.00 W/m2 FEW
05:04 -18.3 °C -18.9 °C 34411.9 hPa Calm     92% 0 mm 0.00 W/m2 FEW
05:09 -18.3 °C -18.9 °C 34415.3 hPa Calm     92% 0 mm 0.00 W/m2 FEW
05:14 -18.2 °C -18.8 °C 34415.3 hPa Calm     92% 0 mm 0.00 W/m2 FEW
05:19 -18.2 °C -18.8 °C 34415.3 hPa Calm     93% 0 mm 0.00 W/m2 FEW
05:24 -18.2 °C -18.7 °C 34418.7 hPa Calm     93% 0 mm 0.00 W/m2 FEW
05:29 -18.2 °C -18.7 °C 34418.7 hPa Calm     93% 0 mm 0.00 W/m2 FEW
05:34 -18.2 °C -18.8 °C 34418.7 hPa Calm     93% 0 mm 0.00 W/m2 FEW
05:39 -18.2 °C -18.7 °C 34415.3 hPa Calm     93% 0 mm 0.00 W/m2 CLR
05:45 -18.2 °C -18.7 °C 34418.7 hPa Calm     93% 0 mm 0.00 W/m2 CLR
05:49 -18.2 °C -18.7 °C 34418.7 hPa Calm     93% 0 mm 0.00 W/m2 CLR
05:54 -18.2 °C -18.7 °C 34418.7 hPa Calm     93% 0 mm 0.00 W/m2 CLR
05:59 -18.1 °C -18.7 °C 34418.7 hPa Calm     93% 0 mm 0.00 W/m2 CLR
06:04 -18 °C -18.4 °C 34418.7 hPa Calm     94% 0 mm 0.00 W/m2 CLR
06:09 -18 °C -18.4 °C 34418.7 hPa Calm     94% 0 mm 0.00 W/m2 CLR
06:14 -18 °C -18.5 °C 34422.1 hPa Calm     94% 0 mm 0.00 W/m2 CLR
06:19 -18.1 °C -18.6 °C 34425.5 hPa Calm     93% 0 mm 0.00 W/m2 CLR
06:24 -18.1 °C -18.6 °C 34428.8 hPa Calm     93% 0 mm 0.00 W/m2 CLR
06:28 -18.1 °C -18.7 °C 34428.8 hPa Calm     93% 0 mm 0.00 W/m2 CLR
06:33 -18.1 °C -18.7 °C 34432.2 hPa Calm     93% 0 mm 0.00 W/m2 CLR
06:39 -18.1 °C -18.7 °C 34435.6 hPa Calm     93% 0 mm 0.00 W/m2 BKN
06:43 -18.1 °C -18.6 °C 34435.6 hPa Calm     94% 0 mm 0.00 W/m2 BKN
06:49 -17.9 °C -18.4 °C 34435.6 hPa Calm     94% 0 mm 0.00 W/m2 BKN
06:54 -17.8 °C -18.3 °C 34439 hPa Calm     94% 0 mm 0.00 W/m2 BKN
06:58 -17.7 °C -18.2 °C 34442.4 hPa West 2.6 km/h   94% 0 mm 0.00 W/m2 BKN
07:04 -17.6 °C -18.1 °C 34445.8 hPa SSW 3.1 km/h 0.3 km/h 94% 0 mm 0.00 W/m2 BKN
07:08 -17.4 °C -17.9 °C 34442.4 hPa Calm     94% 0 mm 0.00 W/m2 BKN
07:13 -17.3 °C -17.8 °C 34445.8 hPa Calm     94% 0 mm 0.00 W/m2 BKN
07:19 -17.2 °C -17.7 °C 34445.8 hPa SSW 6 km/h 0.5 km/h 94% 0 mm 0.00 W/m2 BKN
07:24 -17.1 °C -17.6 °C 34445.8 hPa Calm     94% 0 mm 0.00 W/m2 BKN
07:29 -17.1 °C -17.6 °C 34445.8 hPa Calm     93% 0 mm 0.00 W/m2 BKN
07:34 -17 °C -17.6 °C 34445.8 hPa South 15 km/h 5 km/h 93% 0 mm 0.00 W/m2 BKN
07:38 -16.9 °C -17.6 °C 34445.8 hPa SSW 9 km/h   92% 0 mm 0.00 W/m2 SCT
07:44 -16.8 °C -17.4 °C 34449.2 hPa SSW 11.9 km/h 3.4 km/h 92% 0 mm 0.00 W/m2 SCT
07:49 -16.8 °C -17.6 °C 34449.2 hPa SSW 9 km/h 2.9 km/h 91% 0 mm 0.00 W/m2 SCT
07:54 -16.8 °C -17.6 °C 34449.2 hPa Calm     90% 0 mm 0.00 W/m2 SCT
07:59 -16.7 °C -17.6 °C 34449.2 hPa South 18.8 km/h 8.2 km/h 90% 0 mm 0.00 W/m2 SCT
08:04 -16.7 °C -17.6 °C 34452.6 hPa Calm     89% 0 mm 0.00 W/m2 SCT
08:09 -16.7 °C -17.6 °C 34452.6 hPa SSW 11.9 km/h 8 km/h 89% 0 mm 0.00 W/m2 SCT
08:14 -16.7 °C -17.7 °C 34452.6 hPa SSW 6 km/h 1 km/h 88% 0 mm 0.00 W/m2 SCT
08:19 -16.7 °C -17.7 °C 34455.9 hPa SSW 9 km/h 2.6 km/h 88% 0 mm 0.00 W/m2 SCT
08:24 -16.7 °C -17.7 °C 34455.9 hPa SSW 13.5 km/h 6 km/h 88% 0 mm 0.00 W/m2 SCT
08:29 -16.7 °C -17.7 °C 34452.6 hPa SSW 15 km/h 5.6 km/h 87% 0 mm 0.00 W/m2 SCT
08:34 -16.7 °C -17.7 °C 34452.6 hPa SSW 6 km/h 1.8 km/h 87% 0 mm 0.00 W/m2 SCT
08:39 -16.7 °C -17.7 °C 34455.9 hPa South 15 km/h 4.2 km/h 87% 0 mm 0.00 W/m2 SCT
08:44 -16.6 °C -17.7 °C 34455.9 hPa South 13.5 km/h 9 km/h 87% 0 mm 5.00 W/m2 SCT
08:49 -16.6 °C -17.7 °C 34459.3 hPa SSW 15 km/h 4.2 km/h 87% 0 mm 7.00 W/m2 SCT
08:53 -16.6 °C -17.7 °C 34466.1 hPa SSW 3.1 km/h   87% 0 mm 11.00 W/m2 SCT
08:59 -16.6 °C -17.8 °C 34466.1 hPa SSW 3.1 km/h   86% 0 mm 14.00 W/m2 SCT
09:04 -16.6 °C -17.7 °C 34469.5 hPa South 15 km/h 5.6 km/h 86% 0 mm 16.00 W/m2 SCT
09:08 -16.5 °C -17.7 °C 34472.9 hPa SSW 14.5 km/h 4.2 km/h 86% 0 mm 19.00 W/m2 SCT
09:13 -16.5 °C -17.7 °C 34472.9 hPa South 11.9 km/h 5.1 km/h 86% 0 mm 21.00 W/m2 SCT
Juneau County Weather
Compliments of Weather Underground - 2.25 mb